Inquirer Daily News

Weather

Get conditions and forecasts for any City, State, ZIP code or Country:  
Northeast Philadelphia, PA
on Monday, December 24, 2012

Monday
Previous Day Next Day
Daily Summary
 ActualAverage (KTTN)Record (KTTN)
Temperature
Mean Temperature °F 33°F  
Max Temperature 39°F 41°F 63°F (1990)
Min Temperature 25°F 25°F -1°F (1983)
Degree Days
Heating Degree Days 33 32  
Month to date heating degree days 689  
Since 1 July heating degree days 1665  
Cooling Degree Days 0 0  
Month to date cooling degree days 0  
Year to date cooling degree days 965  
Moisture
Dew Point 26°F   
Average Humidity 76    
Maximum Humidity 100    
Minimum Humidity 50    
Precipitation
Precipitation 0.23 in 0.10 in 1.95 in (2003)
Month to date precipitation 3.08  
Year to date precipitation 45.82  
Wind
Wind Speed 4 mph   
Max Wind Speed 7 mph   
Max Gust Speed mph   
Visibility 6 miles   
Events Rain , Snow   

Key: T is trace of precipitation, MM is missing value
Source: NWS Daily Summary
Time(EST)TemperatureDew PointHumidity Pressure Visibility Wind DirectionWind SpeedGust SpeedPrecipitationEvents Conditions
12:54 AM 30.0°F 23.0°F 75% 30.00 in 10.0 miles Calm Calm - N/A   Clear
1:54 AM 33.1°F 21.9°F 64% 30.02 in 10.0 miles NW 4.6 mph - N/A   Clear
2:54 AM 33.1°F 21.0°F 61% 30.03 in 10.0 miles NNW 3.5 mph - N/A   Clear
3:54 AM 30.9°F 19.9°F 64% 30.04 in 10.0 miles NNW 3.5 mph - N/A   Clear
4:54 AM 30.9°F 21.0°F 67% 30.04 in 10.0 miles NW 3.5 mph - N/A   Clear
5:54 AM 26.1°F 19.9°F 78% 30.06 in 10.0 miles Calm Calm - N/A   Clear
6:54 AM 25.0°F 19.9°F 81% 30.09 in 10.0 miles Calm Calm - N/A   Clear
7:54 AM 27.0°F 21.0°F 78% 30.10 in 10.0 miles NW 4.6 mph - N/A   Clear
8:54 AM 33.1°F 25.0°F 72% 30.10 in 10.0 miles NNW 5.8 mph - N/A   Clear
9:54 AM 36.0°F 23.0°F 59% 30.11 in 10.0 miles North 6.9 mph - N/A   Clear
10:54 AM 37.0°F 21.9°F 54% 30.09 in 10.0 miles NNE 6.9 mph - N/A   Clear
11:54 AM 39.0°F 21.9°F 50% 30.08 in 10.0 miles NE 4.6 mph - N/A   Clear
12:54 PM 37.9°F 21.9°F 53% 30.08 in 10.0 miles ESE 3.5 mph - N/A   Clear
1:54 PM 39.0°F 21.9°F 50% 30.06 in 10.0 miles SE 5.8 mph - N/A   Clear
2:54 PM 37.9°F 23.0°F 55% 30.06 in 10.0 miles SE 6.9 mph - N/A   Clear
3:54 PM 37.9°F 23.0°F 55% 30.04 in 10.0 miles ESE 5.8 mph - N/A   Overcast
4:54 PM 37.9°F 24.1°F 57% 30.02 in 10.0 miles East 3.5 mph - N/A   Overcast
5:15 PM 35.6°F 26.6°F 70% 30.02 in 2.5 miles Calm Calm - 0.00 in Snow Light Snow
5:24 PM 35.6°F 26.6°F 70% 30.02 in 3.0 miles SE 3.5 mph - 0.00 in Snow Light Snow
5:31 PM 35.6°F 28.4°F 75% 30.03 in 2.0 miles ESE 4.6 mph - 0.01 in Snow Light Snow
5:51 PM 33.8°F 30.2°F 87% 30.03 in 1.5 miles East 4.6 mph - 0.01 in Snow Light Snow
5:54 PM 33.1°F 30.0°F 89% 30.03 in 1.2 miles East 3.5 mph - 0.02 in Snow Light Snow
6:04 PM 33.8°F 30.2°F 87% 30.03 in 1.0 miles ESE 3.5 mph - 0.00 in Snow Light Snow
6:17 PM 32.0°F 30.2°F 93% 30.02 in 1.0 miles East 4.6 mph - 0.01 in Snow Light Snow
6:54 PM 32.0°F 30.9°F 96% 30.02 in 1.2 miles East 5.8 mph - 0.03 in Snow Light Snow
7:34 PM 33.8°F 32.0°F 93% 29.98 in 3.0 miles ENE 6.9 mph - 0.03 in   Overcast
7:54 PM 33.1°F 32.0°F 96% 29.98 in 5.0 miles ENE 6.9 mph - 0.04 in Rain Light Rain
8:54 PM 33.1°F 32.0°F 96% 29.96 in 4.0 miles ENE 6.9 mph - 0.03 in Rain Light Rain
9:46 PM 33.8°F 32.0°F 93% 29.96 in 2.5 miles ENE 5.8 mph - 0.04 in Rain Light Rain
9:54 PM 33.1°F 32.0°F 96% 29.96 in 2.0 miles NE 6.9 mph - 0.04 in Rain Light Rain
10:13 PM 33.8°F 32.0°F 93% 29.96 in 1.8 miles NE 5.8 mph - 0.01 in   Overcast
10:54 PM 33.1°F 33.1°F 100% 29.95 in 1.8 miles NE 5.8 mph - 0.04 in   Overcast
11:19 PM 33.8°F 33.8°F 100% 29.94 in 2.0 miles North 3.5 mph - 0.02 in Rain Light Rain
11:54 PM 34.0°F 32.0°F 92% 29.93 in 2.0 miles NNE 3.5 mph - 0.03 in   Overcast
Astronomy
Sunrise:07:20 AM (EST) Moon Rise:02:05 PM (EST)
Sunset:04:39 PM (EST) Moon Set:03:56 AM (EST)
Moon Phase
Dec. 24 Dec. 28 Jan. 04 Jan. 11 Jan. 18

Copyright © 2014 The Weather Underground, Inc.